AIC128 EGLL-VABB

Flight info

Callsign AIC128
Flight time N/A
Altitude 33000
Route DET1J DET L6 DVR UL9 KONAN DCT KOK DCT KOMOB DCT PITES DCT BABEG/N0481F350 DCT KUMOM DCT VEKEN DCT ELTIB DCT AKIKA DCT MAVAR DCT BITLA UN132 KEA UL607 PAXIS L607 NABSI P557 OBRAN L321 REXUM M872 KULKI/N0492F370 M872 PMA Y214 RAPMA DCT MEVDO DCT ALROK DCT DEBIN DCT MIDGU M440 TULBU N881 AMBOS M700 PARAR N571 SUGID KETOR2A
Aircraft B77W/H-SDE1E2E3FGHIJ2J3J4J5M1RWXY/LB1D1

Departure

Time 2026-04-30 20:03
Airport London Heathrow Airport (EGLL)

Arrival

Time N/A
Airport Chhatrapati Shivaji Maharaj International Airport (VABB)
Time Latitude Longitude Altitude Speed Heading
2026-04-30 19:36 51.46864 -0.44422 92 ft 0 kts 90°
2026-04-30 19:50 51.46864 -0.44425 92 ft 1 kts 90°
2026-04-30 19:50 51.46864 -0.44451 92 ft 3 kts 90°
2026-04-30 19:50 51.46864 -0.44484 95 ft 2 kts 90°
2026-04-30 19:51 51.46864 -0.44512 95 ft 3 kts 104°
2026-04-30 19:51 51.46869 -0.44536 92 ft 3 kts 130°
2026-04-30 19:51 51.46879 -0.44551 92 ft 3 kts 160°
2026-04-30 19:51 51.46897 -0.44557 91 ft 3 kts 178°
2026-04-30 19:52 51.46911 -0.44557 91 ft 1 kts 180°
2026-04-30 19:52 51.46924 -0.44558 91 ft 1 kts 180°
2026-04-30 19:52 51.46926 -0.44558 91 ft 0 kts 180°
2026-04-30 19:54 51.46925 -0.44558 92 ft 1 kts 180°
2026-04-30 19:55 51.46872 -0.44557 92 ft 13 kts 180°
2026-04-30 19:55 51.46785 -0.44558 92 ft 12 kts 185°
2026-04-30 19:55 51.46752 -0.44650 93 ft 10 kts 263°
2026-04-30 19:55 51.46751 -0.44778 92 ft 14 kts 270°
2026-04-30 19:56 51.46750 -0.44962 92 ft 17 kts 270°
2026-04-30 19:56 51.46750 -0.45152 92 ft 17 kts 270°
2026-04-30 19:56 51.46748 -0.45334 95 ft 12 kts 260°
2026-04-30 19:56 51.46685 -0.45401 95 ft 11 kts 213°
2026-04-30 19:57 51.46662 -0.45511 94 ft 11 kts 269°
2026-04-30 19:57 51.46661 -0.45632 93 ft 11 kts 270°
2026-04-30 19:57 51.46660 -0.45795 93 ft 18 kts 269°
2026-04-30 19:57 51.46659 -0.46001 95 ft 19 kts 269°
2026-04-30 19:58 51.46659 -0.46208 95 ft 19 kts 270°
2026-04-30 19:58 51.46658 -0.46414 95 ft 19 kts 269°
2026-04-30 19:58 51.46656 -0.46620 95 ft 19 kts 269°
2026-04-30 19:58 51.46657 -0.46827 95 ft 19 kts 270°
2026-04-30 19:59 51.46658 -0.47033 95 ft 19 kts 270°
2026-04-30 19:59 51.46655 -0.47240 94 ft 19 kts 269°
2026-04-30 19:59 51.46654 -0.47652 91 ft 19 kts 270°
2026-04-30 20:00 51.46653 -0.47859 91 ft 19 kts 269°
2026-04-30 20:00 51.46653 -0.48065 95 ft 19 kts 270°
2026-04-30 20:00 51.46652 -0.48269 92 ft 18 kts 269°
2026-04-30 20:00 51.46652 -0.48476 92 ft 18 kts 270°
2026-04-30 20:01 51.46593 -0.48772 95 ft 12 kts 201°
2026-04-30 20:01 51.46510 -0.48774 97 ft 11 kts 149°
2026-04-30 20:01 51.46478 -0.48589 94 ft 34 kts 90°
2026-04-30 20:02 51.46486 -0.46355 96 ft 159 kts 89°
2026-04-30 20:02 51.46489 -0.44420 359 ft 178 kts 89°
2026-04-30 20:03 51.46258 -0.41196 1442 ft 170 kts 110°
2026-04-30 20:03 51.45622 -0.39645 1912 ft 176 kts 137°
2026-04-30 20:03 51.44804 -0.38104 2066 ft 193 kts 109°
2026-04-30 20:03 51.44417 -0.35995 2399 ft 204 kts 111°
2026-04-30 20:04 51.43927 -0.33709 2615 ft 225 kts 112°
2026-04-30 20:04 51.43230 -0.30478 3379 ft 238 kts 112°
2026-04-30 20:04 51.42862 -0.28764 3774 ft 243 kts 111°
2026-04-30 20:05 51.42053 -0.23300 4945 ft 262 kts 105°
2026-04-30 20:05 51.41675 -0.20420 5596 ft 266 kts 105°
2026-04-30 20:05 51.40890 -0.14601 7033 ft 269 kts 104°
2026-04-30 20:06 51.40486 -0.11655 7700 ft 271 kts 104°
2026-04-30 20:06 51.40079 -0.08699 8384 ft 273 kts 105°
2026-04-30 20:06 51.39668 -0.05729 9069 ft 274 kts 105°
2026-04-30 20:06 51.39254 -0.02737 9738 ft 276 kts 105°
2026-04-30 20:07 51.38835 0.00287 10337 ft 281 kts 105°
2026-04-30 20:07 51.38393 0.03441 10546 ft 301 kts 105°
2026-04-30 20:07 51.37411 0.10453 10892 ft 344 kts 105°
2026-04-30 20:08 51.36875 0.14279 11266 ft 358 kts 104°
2026-04-30 20:08 51.36321 0.18222 11873 ft 367 kts 104°
2026-04-30 20:08 51.35757 0.22226 12669 ft 371 kts 105°
2026-04-30 20:08 51.35185 0.26270 13572 ft 373 kts 105°
2026-04-30 20:09 51.34609 0.30337 14357 ft 378 kts 105°
2026-04-30 20:09 51.34022 0.34472 15042 ft 383 kts 105°
2026-04-30 20:09 51.32821 0.42894 16496 ft 393 kts 105°
2026-04-30 20:10 51.31584 0.51514 17919 ft 403 kts 105°
2026-04-30 20:10 51.30948 0.55909 18603 ft 408 kts 105°
2026-04-30 20:10 51.30300 0.60353 19253 ft 411 kts 105°
2026-04-30 20:11 51.28754 0.69173 20675 ft 414 kts 108°
2026-04-30 20:11 51.27921 0.73591 21362 ft 416 kts 109°
2026-04-30 20:11 51.27084 0.78031 22020 ft 419 kts 108°
2026-04-30 20:12 51.25406 0.87029 23283 ft 426 kts 108°
2026-04-30 20:12 51.24565 0.91574 23906 ft 429 kts 108°
2026-04-30 20:12 51.23720 0.96149 24422 ft 431 kts 108°
2026-04-30 20:13 51.22868 1.00758 24909 ft 435 kts 108°
2026-04-30 20:13 51.22011 1.05386 25393 ft 438 kts 108°
2026-04-30 20:13 51.21152 1.10009 25866 ft 440 kts 108°
2026-04-30 20:13 51.20276 1.14707 26329 ft 443 kts 108°
2026-04-30 20:14 51.19394 1.19432 26806 ft 446 kts 108°
2026-04-30 20:14 51.18504 1.24188 27244 ft 449 kts 108°
2026-04-30 20:14 51.17606 1.28970 27674 ft 452 kts 108°
2026-04-30 20:14 51.16750 1.33800 28103 ft 455 kts 105°
2026-04-30 20:15 51.16140 1.38769 28500 ft 459 kts 100°
2026-04-30 20:15 51.15839 1.43857 28898 ft 463 kts 96°
2026-04-30 20:15 51.15620 1.48982 29265 ft 465 kts 96°
2026-04-30 20:15 51.15394 1.54148 29616 ft 468 kts 96°
2026-04-30 20:16 51.15157 1.59338 29946 ft 470 kts 96°
2026-04-30 20:16 51.14909 1.64535 30268 ft 472 kts 97°
2026-04-30 20:16 51.14652 1.69748 30608 ft 472 kts 97°
2026-04-30 20:16 51.14390 1.74959 30993 ft 471 kts 97°
2026-04-30 20:17 51.14127 1.80149 31390 ft 469 kts 97°
2026-04-30 20:17 51.13863 1.85311 31775 ft 468 kts 97°
2026-04-30 20:17 51.13597 1.90477 32127 ft 467 kts 97°
2026-04-30 20:17 51.13329 1.95632 32462 ft 467 kts 97°
2026-04-30 20:18 51.13060 2.00778 32793 ft 466 kts 97°
2026-04-30 20:18 51.12791 2.05859 33119 ft 466 kts 97°
2026-04-30 20:18 51.12516 2.11019 33166 ft 468 kts 97°
2026-04-30 20:19 51.11961 2.21322 33203 ft 467 kts 97°
2026-04-30 20:19 51.11399 2.31596 33228 ft 466 kts 97°
2026-04-30 20:20 51.10828 2.41879 33232 ft 466 kts 97°
2026-04-30 20:20 51.10250 2.52151 33229 ft 466 kts 97°
2026-04-30 20:21 51.09394 2.62334 33222 ft 464 kts 105°
2026-04-30 20:21 51.07292 2.72006 33227 ft 462 kts 116°
2026-04-30 20:22 51.04303 2.81064 33224 ft 462 kts 119°
2026-04-30 20:22 51.01248 2.90047 33243 ft 463 kts 119°
2026-04-30 20:23 50.98207 2.99043 33246 ft 462 kts 118°
2026-04-30 20:23 50.95178 3.08041 33229 ft 463 kts 118°
2026-04-30 20:24 50.92168 3.16973 33246 ft 462 kts 118°
2026-04-30 20:24 50.89130 3.25957 33250 ft 462 kts 118°
2026-04-30 20:25 50.84557 3.39415 33253 ft 463 kts 118°
2026-04-30 20:26 50.79955 3.52882 33238 ft 464 kts 119°
2026-04-30 20:26 50.75339 3.66320 33258 ft 464 kts 119°
2026-04-30 20:27 50.69156 3.84210 33262 ft 465 kts 119°
2026-04-30 20:28 50.62936 4.02078 33263 ft 465 kts 119°
2026-04-30 20:30 50.55127 4.24338 33284 ft 466 kts 119°
2026-04-30 20:31 50.45664 4.51051 33297 ft 466 kts 119°
2026-04-30 20:32 50.37733 4.73228 33286 ft 466 kts 119°
2026-04-30 20:33 50.32956 4.86495 33264 ft 466 kts 119°
2026-04-30 20:34 50.28186 4.99673 33275 ft 466 kts 119°
2026-04-30 20:35 50.23385 5.12870 33279 ft 465 kts 119°
2026-04-30 20:35 50.18575 5.26028 33285 ft 466 kts 119°
2026-04-30 20:36 50.15352 5.34812 33264 ft 467 kts 119°
2026-04-30 20:37 50.10596 5.48001 33265 ft 467 kts 118°
2026-04-30 20:37 50.07457 5.56863 33270 ft 467 kts 118°
2026-04-30 20:38 50.04309 5.65691 33297 ft 466 kts 118°
2026-04-30 20:38 50.01145 5.74511 33713 ft 467 kts 118°
2026-04-30 20:39 49.97981 5.83291 34445 ft 464 kts 118°
2026-04-30 20:39 49.96404 5.87659 34688 ft 464 kts 118°
2026-04-30 20:39 49.94972 5.91618 34898 ft 464 kts 118°
2026-04-30 20:40 49.91807 6.00345 35231 ft 465 kts 118°
2026-04-30 20:40 49.88632 6.09073 35290 ft 464 kts 118°
2026-04-30 20:41 49.83889 6.22057 35296 ft 462 kts 118°
2026-04-30 20:41 49.80710 6.30722 35297 ft 463 kts 118°
2026-04-30 20:42 49.77527 6.39372 35292 ft 462 kts 118°
2026-04-30 20:43 49.72757 6.52334 35291 ft 462 kts 116°
2026-04-30 20:43 49.69901 6.61219 35293 ft 461 kts 114°
2026-04-30 20:44 49.65690 6.74594 35288 ft 462 kts 114°
2026-04-30 20:45 49.60010 6.92407 35297 ft 463 kts 114°
2026-04-30 20:45 49.57151 7.01304 35298 ft 463 kts 114°
2026-04-30 20:46 49.51417 7.19059 35310 ft 464 kts 114°
2026-04-30 20:47 49.47089 7.32378 35304 ft 464 kts 114°
2026-04-30 20:48 49.42752 7.45655 35307 ft 464 kts 114°
2026-04-30 20:48 49.39866 7.54450 35305 ft 464 kts 114°
2026-04-30 20:49 49.36952 7.63302 35307 ft 465 kts 114°
2026-04-30 20:50 49.32567 7.76561 35306 ft 465 kts 114°
2026-04-30 20:50 49.30129 7.83903 35305 ft 465 kts 114°
2026-04-30 20:51 49.27190 7.92726 35316 ft 465 kts 114°
2026-04-30 20:51 49.22764 8.05955 35320 ft 465 kts 114°
2026-04-30 20:52 49.19809 8.14753 35321 ft 465 kts 114°
2026-04-30 20:53 49.15362 8.27928 35314 ft 464 kts 114°
2026-04-30 20:53 49.12393 8.36690 35318 ft 464 kts 114°
2026-04-30 20:54 49.07943 8.49765 35318 ft 464 kts 114°
2026-04-30 20:55 49.03453 8.62890 35323 ft 465 kts 114°
2026-04-30 20:55 49.00450 8.71632 35319 ft 465 kts 114°
2026-04-30 20:56 48.95933 8.84725 35320 ft 465 kts 114°
2026-04-30 20:57 48.91397 8.97805 35327 ft 467 kts 114°
2026-04-30 20:57 48.88360 9.06523 35326 ft 467 kts 114°
2026-04-30 20:58 48.83795 9.19578 35323 ft 466 kts 114°
2026-04-30 20:58 48.80764 9.28211 35323 ft 467 kts 114°
2026-04-30 20:59 48.76171 9.41235 35307 ft 467 kts 114°
2026-04-30 21:00 48.70025 9.58569 35341 ft 467 kts 113°
2026-04-30 21:01 48.65338 9.71504 35339 ft 468 kts 115°
2026-04-30 21:02 48.60300 9.84184 35343 ft 469 kts 116°
2026-04-30 21:02 48.56959 9.92550 35361 ft 468 kts 116°
2026-04-30 21:03 48.53617 10.00973 35356 ft 468 kts 115°
2026-04-30 21:03 48.50276 10.09395 35357 ft 467 kts 115°
2026-04-30 21:04 48.46921 10.17827 35352 ft 467 kts 115°
2026-04-30 21:04 48.43028 10.27577 35367 ft 467 kts 115°
2026-04-30 21:05 48.40663 10.33482 35364 ft 468 kts 115°
2026-04-30 21:05 48.37297 10.41859 35367 ft 467 kts 115°
2026-04-30 21:06 48.33938 10.50194 35364 ft 466 kts 115°
2026-04-30 21:06 48.30568 10.58532 35360 ft 466 kts 115°
2026-04-30 21:07 48.27215 10.66804 35355 ft 467 kts 115°
2026-04-30 21:07 48.23830 10.75126 35336 ft 466 kts 115°
2026-04-30 21:08 48.20463 10.83381 35343 ft 466 kts 115°
2026-04-30 21:08 48.17072 10.91666 35365 ft 466 kts 115°
2026-04-30 21:09 48.13679 10.99932 35351 ft 466 kts 115°
2026-04-30 21:09 48.10278 11.08193 35352 ft 466 kts 115°
2026-04-30 21:10 48.06873 11.16439 35351 ft 466 kts 115°
2026-04-30 21:10 48.03458 11.24681 35353 ft 466 kts 115°
2026-04-30 21:11 48.00032 11.32926 35356 ft 467 kts 115°
2026-04-30 21:11 47.98817 11.35844 35351 ft 467 kts 115°
2026-04-30 21:12 47.97349 11.39365 35352 ft 466 kts 115°
2026-04-30 21:12 47.93917 11.47581 35355 ft 466 kts 115°
2026-04-30 21:13 47.90473 11.55799 35358 ft 467 kts 115°
2026-04-30 21:13 47.87048 11.63947 35373 ft 467 kts 115°
2026-04-30 21:14 47.83593 11.72144 35373 ft 467 kts 115°
2026-04-30 21:14 47.80134 11.80322 35377 ft 467 kts 115°
2026-04-30 21:15 47.76669 11.88494 35378 ft 467 kts 115°
2026-04-30 21:15 47.73197 11.96658 35374 ft 468 kts 115°
2026-04-30 21:16 47.69712 12.04825 35386 ft 469 kts 115°
2026-04-30 21:16 47.66215 12.12999 35380 ft 468 kts 115°
2026-04-30 21:17 47.62723 12.21136 35382 ft 468 kts 115°
2026-04-30 21:17 47.59228 12.29259 35373 ft 468 kts 115°
2026-04-30 21:18 47.55230 12.36912 35384 ft 482 kts 127°
2026-04-30 21:18 47.50044 12.43370 35387 ft 493 kts 137°
2026-04-30 21:19 47.44368 12.49142 35355 ft 495 kts 138°
2026-04-30 21:19 47.38689 12.54872 35363 ft 494 kts 138°
2026-04-30 21:20 47.33028 12.60646 35350 ft 495 kts 138°
2026-04-30 21:20 47.27369 12.66446 35348 ft 495 kts 138°
2026-04-30 21:21 47.21733 12.72216 35346 ft 498 kts 138°
2026-04-30 21:22 47.13202 12.80903 35340 ft 497 kts 138°
2026-04-30 21:23 47.01819 12.92447 35340 ft 497 kts 139°
2026-04-30 21:23 46.93253 13.01091 35366 ft 499 kts 139°
2026-04-30 21:24 46.87525 13.06852 35360 ft 500 kts 139°
2026-04-30 21:24 46.81791 13.12603 35371 ft 500 kts 139°
2026-04-30 21:25 46.73163 13.21230 35353 ft 501 kts 140°
2026-04-30 21:26 46.64560 13.29802 35369 ft 502 kts 140°
2026-04-30 21:27 46.56109 13.38685 35368 ft 496 kts 133°
2026-04-30 21:27 46.51361 13.45845 35374 ft 489 kts 126°
2026-04-30 21:28 46.44593 13.56917 35370 ft 491 kts 126°
2026-04-30 21:29 46.37734 13.67970 35368 ft 492 kts 127°
2026-04-30 21:30 46.26212 13.86372 35391 ft 494 kts 127°
2026-04-30 21:31 46.14669 14.04690 35381 ft 495 kts 127°
2026-04-30 21:32 46.07692 14.15698 35395 ft 497 kts 128°
2026-04-30 21:32 46.03022 14.23047 35389 ft 497 kts 128°
2026-04-30 21:33 45.96013 14.34032 35389 ft 497 kts 128°
2026-04-30 21:34 45.91320 14.41366 35393 ft 498 kts 128°
2026-04-30 21:34 45.84259 14.52360 35385 ft 500 kts 128°
2026-04-30 21:35 45.79569 14.59640 35385 ft 500 kts 129°
2026-04-30 21:35 45.74846 14.66952 35368 ft 500 kts 129°
2026-04-30 21:36 45.70120 14.74246 35390 ft 500 kts 129°
2026-04-30 21:37 45.63124 14.85010 35384 ft 501 kts 129°
2026-04-30 21:37 45.59168 14.91079 35373 ft 502 kts 129°
2026-04-30 21:38 45.53636 14.99541 35390 ft 502 kts 130°
2026-04-30 21:38 45.48867 15.06815 35388 ft 502 kts 130°
2026-04-30 21:39 45.44897 15.12856 35383 ft 502 kts 130°
2026-04-30 21:39 45.40114 15.20117 35390 ft 503 kts 130°
2026-04-30 21:40 45.35323 15.27370 35388 ft 503 kts 130°
2026-04-30 21:40 45.30523 15.34618 35383 ft 503 kts 130°
2026-04-30 21:41 45.25716 15.41858 35383 ft 504 kts 131°
2026-04-30 21:41 45.20897 15.49096 35384 ft 504 kts 131°
2026-04-30 21:42 45.16074 15.56321 35377 ft 505 kts 131°
2026-04-30 21:42 45.11238 15.63546 35387 ft 505 kts 131°
2026-04-30 21:43 45.06392 15.70767 35385 ft 506 kts 131°
2026-04-30 21:43 45.01538 15.77981 35389 ft 506 kts 131°
2026-04-30 21:44 44.96705 15.85145 35388 ft 507 kts 132°
2026-04-30 21:44 44.91831 15.92351 35386 ft 507 kts 132°
2026-04-30 21:45 44.86948 15.99552 35388 ft 508 kts 132°
2026-04-30 21:45 44.82055 16.06747 35379 ft 508 kts 132°
2026-04-30 21:46 44.77157 16.13932 35373 ft 508 kts 132°
2026-04-30 21:46 44.72253 16.21108 35384 ft 508 kts 133°
2026-04-30 21:47 44.67338 16.28279 35379 ft 509 kts 133°
2026-04-30 21:47 44.62454 16.35388 35373 ft 509 kts 133°
2026-04-30 21:48 44.57527 16.42540 35373 ft 510 kts 133°
2026-04-30 21:48 44.52586 16.49695 35372 ft 511 kts 133°
2026-04-30 21:49 44.47632 16.56850 35375 ft 511 kts 133°
2026-04-30 21:49 44.42669 16.64000 35380 ft 511 kts 133°
2026-04-30 21:50 44.37706 16.71131 35370 ft 511 kts 134°
2026-04-30 21:50 44.32739 16.78253 35369 ft 512 kts 134°
2026-04-30 21:51 44.27950 16.85509 35390 ft 512 kts 130°
2026-04-30 21:51 44.23357 16.93117 35389 ft 513 kts 129°
2026-04-30 21:52 44.18770 17.00735 35388 ft 513 kts 129°
2026-04-30 21:52 44.14161 17.08326 35392 ft 512 kts 130°
2026-04-30 21:53 44.09535 17.15898 35388 ft 513 kts 130°
2026-04-30 21:53 44.04928 17.23413 35370 ft 514 kts 130°
2026-04-30 21:54 44.00285 17.30969 35383 ft 514 kts 130°
2026-04-30 21:54 43.95631 17.38526 35361 ft 514 kts 130°
2026-04-30 21:55 43.90973 17.46070 35356 ft 516 kts 130°
2026-04-30 21:55 43.86290 17.53634 35346 ft 516 kts 130°
2026-04-30 21:56 43.81631 17.61138 35354 ft 516 kts 130°
2026-04-30 21:56 43.76949 17.68661 35339 ft 516 kts 131°
2026-04-30 21:57 43.72246 17.76198 35330 ft 517 kts 131°
2026-04-30 21:57 43.67536 17.83725 35321 ft 517 kts 131°
2026-04-30 21:58 43.62818 17.91246 35336 ft 517 kts 131°
2026-04-30 21:58 43.58091 17.98762 35298 ft 518 kts 131°
2026-04-30 21:59 43.53387 18.06221 35307 ft 518 kts 131°
2026-04-30 22:00 43.46272 18.17468 35300 ft 519 kts 131°
2026-04-30 22:00 43.39145 18.28689 35303 ft 519 kts 131°
2026-04-30 22:01 43.34376 18.36174 35282 ft 520 kts 132°
2026-04-30 22:01 43.29631 18.43604 35304 ft 521 kts 132°
2026-04-30 22:02 43.24835 18.51090 35286 ft 522 kts 132°
2026-04-30 22:02 43.20036 18.58562 35283 ft 521 kts 132°
2026-04-30 22:03 43.15239 18.66014 35302 ft 521 kts 132°
2026-04-30 22:03 43.10467 18.73408 35277 ft 522 kts 133°
2026-04-30 22:04 43.05653 18.80847 35289 ft 523 kts 133°
2026-04-30 22:05 42.98402 18.92015 35285 ft 524 kts 133°
2026-04-30 22:05 42.93548 18.99468 35286 ft 524 kts 133°
2026-04-30 22:06 42.88701 19.06894 35276 ft 523 kts 133°
2026-04-30 22:06 42.81456 19.17953 35270 ft 524 kts 133°
2026-04-30 22:07 42.76587 19.25362 35272 ft 525 kts 133°
2026-04-30 22:07 42.71704 19.32774 35274 ft 526 kts 133°
2026-04-30 22:08 42.66815 19.40177 35264 ft 526 kts 134°
2026-04-30 22:08 42.61921 19.47571 35255 ft 525 kts 134°
2026-04-30 22:09 42.57028 19.54944 35255 ft 526 kts 134°
2026-04-30 22:09 42.51970 19.62092 35231 ft 523 kts 141°
2026-04-30 22:10 42.46295 19.68269 35263 ft 524 kts 144°
2026-04-30 22:10 42.40594 19.74352 35231 ft 524 kts 144°
2026-04-30 22:11 42.32035 19.83581 35237 ft 525 kts 144°
2026-04-30 22:12 42.26337 19.89745 35246 ft 523 kts 144°
2026-04-30 22:12 42.20689 19.95838 35233 ft 523 kts 144°
2026-04-30 22:13 42.14994 20.01962 35238 ft 523 kts 144°
2026-04-30 22:13 42.09293 20.08075 35224 ft 523 kts 145°
2026-04-30 22:14 42.03586 20.14182 35224 ft 524 kts 145°
2026-04-30 22:14 41.97908 20.20244 35226 ft 524 kts 145°
2026-04-30 22:15 41.92180 20.26343 35227 ft 525 kts 145°
2026-04-30 22:15 41.86452 20.32431 35227 ft 525 kts 145°
2026-04-30 22:16 41.80749 20.38478 35235 ft 525 kts 145°
2026-04-30 22:17 41.69292 20.50584 35241 ft 524 kts 146°
2026-04-30 22:17 41.60734 20.59611 35246 ft 524 kts 145°
2026-04-30 22:18 41.52154 20.68672 35249 ft 524 kts 146°
2026-04-30 22:19 41.43580 20.77690 35242 ft 522 kts 146°
2026-04-30 22:20 41.35012 20.86667 35246 ft 522 kts 146°
2026-04-30 22:20 41.26491 20.95564 35249 ft 521 kts 146°
2026-04-30 22:21 41.20788 21.01501 35242 ft 520 kts 146°
2026-04-30 22:21 41.15087 21.07425 35249 ft 520 kts 146°
2026-04-30 22:22 41.09390 21.13331 35232 ft 520 kts 146°
2026-04-30 22:22 41.03678 21.19237 35245 ft 520 kts 147°
2026-04-30 22:23 40.97967 21.25130 35233 ft 520 kts 147°
2026-04-30 22:23 40.92300 21.30968 35230 ft 519 kts 147°
2026-04-30 22:24 40.86592 21.36825 35227 ft 519 kts 148°
2026-04-30 22:24 40.80739 21.42388 35224 ft 517 kts 150°
2026-04-30 22:25 40.74818 21.47775 35230 ft 517 kts 150°
2026-04-30 22:25 40.68902 21.53186 35215 ft 517 kts 150°
2026-04-30 22:26 40.60075 21.61341 35207 ft 516 kts 150°
2026-04-30 22:27 40.55191 21.65857 35205 ft 516 kts 150°
2026-04-30 22:27 40.45408 21.74868 35190 ft 516 kts 150°
2026-04-30 22:28 40.37575 21.82055 35173 ft 515 kts 150°
2026-04-30 22:29 40.25824 21.92797 35176 ft 515 kts 150°
2026-04-30 22:31 40.05261 22.11488 35172 ft 513 kts 150°
2026-04-30 22:32 39.90550 22.24771 35161 ft 514 kts 149°
2026-04-30 22:33 39.75877 22.37952 35155 ft 514 kts 149°
2026-04-30 22:35 39.61144 22.51116 35159 ft 514 kts 149°
2026-04-30 22:36 39.46424 22.64200 35166 ft 513 kts 149°
2026-04-30 22:37 39.34622 22.74641 35158 ft 513 kts 149°
2026-04-30 22:38 39.22855 22.85008 35151 ft 513 kts 149°
2026-04-30 22:39 39.14012 22.92771 35151 ft 512 kts 149°
2026-04-30 22:40 38.96333 23.08218 35127 ft 511 kts 149°
2026-04-30 22:41 38.81662 23.20965 35110 ft 510 kts 149°
2026-04-30 22:43 38.64052 23.36181 35118 ft 508 kts 148°
2026-04-30 22:44 38.52326 23.46263 35103 ft 507 kts 148°
2026-04-30 22:45 38.34797 23.61260 35071 ft 506 kts 148°
2026-04-30 22:47 38.17274 23.76166 35022 ft 505 kts 148°
2026-04-30 22:48 38.05707 23.86304 35046 ft 505 kts 147°
2026-04-30 22:49 37.88413 24.01480 35051 ft 505 kts 147°
2026-04-30 22:51 37.71088 24.16567 35034 ft 505 kts 148°
2026-04-30 22:52 37.62402 24.24100 35025 ft 505 kts 148°
2026-04-30 22:53 37.50732 24.33969 35016 ft 504 kts 150°
2026-04-30 22:53 37.41792 24.40858 35015 ft 505 kts 151°
2026-04-30 22:55 37.26823 24.52532 35007 ft 507 kts 150°
2026-04-30 22:56 37.14869 24.61851 35000 ft 508 kts 150°
2026-04-30 22:57 36.99824 24.73524 34991 ft 509 kts 150°
2026-04-30 22:58 36.87750 24.82868 34991 ft 512 kts 150°
2026-04-30 22:59 36.69559 24.96970 34981 ft 515 kts 151°